GFSNIL_sfc_thetae_078.txt.gz
Theta_e
316 312 312 312 310 311 310 311 309 308 307 306 306 306 305 304 305 306 306 307 308 309
309 309 309 309 308 307 307 307 306 305 304 304 304 303 303 302 302 303 304 305 306 306
307 307 307 307 305 304 303 302 302 302 301 301 301 300 300 299 300 301 301 303 302 302
304 305 305 303 303 303 301 300 300 300 299 299 298 298 297 297 298 298 298 299 300 300
302 302 301 300 300 299 298 298 298 298 298 298 297 296 295 296 296 296 296 297 298 297
299 298 298 297 297 297 296 296 297 296 296 295 295 295 294 295 295 294 294 293 294 294
297 297 296 296 295 295 295 295 294 294 294 294 294 293 293 293 292 292 292 292 292 293
297 296 295 294 294 294 293 293 293 293 293 293 293 294 293 293 295 294 293 293 292 293
296 295 294 293 292 292 291 291 291 291 292 292 294 296 297 296 294 293 292 291 292 293
295 294 293 293 292 291 290 290 289 289 290 290 291 297 296 297 293 291 290 290 289 289
295 294 293 292 291 290 290 290 292 290 291 290 292 297 296 295 289 287 287 288 287 286
295 293 292 291 290 289 289 289 291 292 291 290 291 295 295 291 287 286 286 286 286 283
295 294 292 291 290 289 289 291 290 288 289 292 290 294 295 289 284 283 282 281 283 289
294 293 291 290 289 287 288 288 287 288 289 289 290 289 294 292 282 281 280 280 282 283

GFSNIL_sfc_thetae_081.txt.gz
Theta_e
320 318 317 316 314 313 313 313 312 310 308 307 307 305 305 304 304 304 304 304 305 307
306 310 310 310 310 312 310 308 306 306 305 304 303 303 302 301 301 301 302 303 304 304
305 306 307 307 305 304 303 304 303 303 302 302 301 299 299 298 299 299 300 300 300 301
304 304 304 304 304 303 302 302 301 301 299 299 298 297 297 296 297 297 297 297 298 299
301 301 301 301 300 301 300 300 299 299 298 297 297 296 295 295 295 295 295 295 296 296
298 298 298 297 297 297 297 296 296 296 295 295 295 294 293 293 293 293 293 292 292 293
297 297 296 296 295 295 295 294 294 294 294 294 293 293 292 292 291 291 291 291 291 291
296 296 295 294 293 293 293 293 292 292 292 292 292 293 291 292 293 294 294 293 293 292
296 295 294 293 292 291 291 290 291 290 291 291 293 296 297 296 294 294 293 292 293 293
295 294 293 292 291 290 289 289 289 288 289 289 289 296 297 297 294 292 291 291 290 290
294 293 292 291 290 289 289 289 288 289 290 290 290 296 297 296 290 287 287 288 288 288
294 293 291 290 289 289 288 288 288 290 291 290 291 295 296 294 288 287 287 288 287 285
294 293 291 290 289 288 288 288 287 289 290 292 291 294 296 294 287 285 285 284 283 289
293 292 291 289 288 287 287 285 288 289 289 290 291 291 294 296 285 283 282 280 280 281

GFSNIL_sfc_thetae_084.txt.gz
Theta_e
318 319 318 319 318 316 315 314 313 311 310 309 307 306 306 305 305 304 303 302 303 304
306 311 313 312 313 313 313 312 309 307 306 305 304 303 303 301 300 300 301 301 301 302
305 306 307 307 306 307 306 305 304 303 303 301 301 300 299 298 298 298 298 299 298 299
303 304 304 304 303 302 302 302 302 301 300 300 299 298 296 296 296 296 296 296 295 296
302 301 301 300 300 300 299 299 299 299 298 298 297 296 294 294 294 293 293 293 293 294
298 298 298 297 297 298 297 296 296 296 296 295 295 293 293 293 292 291 291 291 290 291
297 297 296 295 295 295 295 294 294 294 294 293 293 292 292 292 291 290 290 291 291 292
296 296 295 294 293 293 293 292 292 292 292 292 292 293 291 291 290 290 291 294 294 294
295 295 294 292 292 291 291 290 290 290 291 290 293 296 297 295 291 291 291 292 293 294
295 294 293 292 291 290 289 289 289 289 289 289 289 295 297 297 293 289 289 291 291 291
295 294 292 291 290 289 288 288 288 288 288 288 290 295 296 296 290 286 287 289 290 289
294 293 291 290 289 288 288 287 288 289 288 290 292 295 296 295 289 284 288 289 289 288
294 293 291 290 289 287 287 287 289 288 288 292 291 294 295 295 289 287 287 286 285 289
294 294 293 289 288 287 286 283 286 287 290 290 291 292 295 296 288 287 285 284 283 281

GFSNIL_sfc_thetae_087.txt.gz
Theta_e
323 325 325 325 324 324 322 320 318 318 317 314 312 311 311 311 310 310 310 309 309 309
311 317 320 319 321 320 319 316 313 311 309 308 308 308 307 306 305 306 306 306 307 307
309 309 312 314 314 314 314 312 309 308 308 306 305 304 304 303 302 302 303 304 304 304
308 308 309 310 310 310 309 308 307 306 305 303 302 302 302 301 301 301 300 300 301 301
306 306 306 305 305 305 305 305 304 303 302 301 300 300 300 299 299 299 298 298 299 299
303 304 303 303 302 302 301 301 301 301 300 299 298 298 298 298 297 297 297 296 296 296
302 302 302 301 300 300 299 299 298 298 298 297 297 296 296 296 296 296 296 296 296 296
301 301 300 298 298 297 298 297 297 296 296 296 296 296 296 295 295 295 295 296 296 296
300 299 298 297 296 296 296 295 296 296 295 295 295 298 298 296 296 295 295 294 295 296
299 298 297 296 295 295 294 294 294 294 294 294 295 297 298 297 296 294 294 294 294 293
298 297 296 295 294 294 294 293 292 293 293 293 293 296 297 297 293 290 288 290 293 292
298 297 295 294 294 293 293 292 292 292 291 292 294 296 297 296 293 291 290 291 292 291
297 297 295 295 293 292 292 292 291 290 291 293 294 296 296 296 292 290 290 290 290 292
296 296 296 294 292 291 290 289 289 290 290 292 294 294 296 296 291 291 289 288 287 286

GFSNIL_sfc_thetae_090.txt.gz
Theta_e
331 333 332 331 331 331 329 330 330 329 328 330 326 323 319 319 318 318 317 315 314 314
319 324 326 328 330 330 328 326 326 326 325 322 320 319 316 315 313 313 313 312 312 311
315 315 317 321 322 323 324 321 320 317 315 314 312 310 310 309 308 308 307 308 308 308
314 314 315 317 319 320 319 317 315 313 311 309 309 309 308 307 306 306 306 306 306 306
312 313 313 314 314 316 316 315 313 311 309 307 306 306 306 304 304 304 303 303 303 303
310 311 312 311 310 311 312 311 310 309 307 306 305 305 305 304 303 303 303 303 302 302
309 309 310 309 308 307 308 307 307 306 305 304 303 303 303 302 302 301 301 301 301 301
308 308 307 306 306 305 305 305 305 303 303 302 302 301 301 301 301 300 299 300 300 300
306 306 306 305 304 303 303 302 302 302 301 301 299 299 299 301 300 300 299 299 299 299
304 305 305 304 303 302 302 302 301 301 300 300 300 299 299 298 300 299 299 298 298 298
303 304 305 303 302 302 302 301 301 300 300 300 299 298 299 298 298 294 292 294 297 297
302 302 303 302 302 302 300 299 299 299 298 298 298 297 298 298 297 294 294 296 297 297
302 302 302 303 302 301 300 298 296 294 297 297 298 297 297 297 296 294 293 295 295 293
301 301 301 301 302 299 296 296 294 293 294 297 298 298 298 297 295 294 293 293 294 293

GFSNIL_sfc_thetae_093.txt.gz
Theta_e
330 329 329 329 330 330 330 331 332 331 332 332 330 329 329 327 326 325 324 323 319 317
327 329 330 331 331 331 333 331 331 328 328 329 328 327 325 321 320 320 319 318 316 314
315 316 318 322 324 327 328 327 325 327 326 323 322 322 319 315 313 313 312 311 311 310
314 315 315 316 318 321 323 322 321 321 320 318 316 315 313 312 309 308 307 307 308 307
313 313 314 314 316 318 318 319 318 316 314 312 311 311 309 307 306 306 305 305 305 304
311 312 312 312 312 313 315 315 315 313 311 309 308 308 308 307 306 306 305 304 304 304
309 310 311 311 310 310 311 311 311 311 309 308 307 306 306 305 304 304 303 303 303 303
307 309 309 309 309 309 308 308 308 307 307 306 305 304 304 303 303 302 301 301 301 302
306 307 308 307 307 306 306 306 305 304 304 304 302 301 302 303 301 301 301 299 300 300
305 305 306 307 306 305 304 305 303 303 303 302 302 300 301 300 302 301 300 300 299 299
304 304 305 306 306 305 304 303 302 302 302 302 301 300 300 299 299 295 293 296 298 298
302 302 303 304 305 305 304 303 302 302 301 300 300 299 300 299 298 295 294 294 296 297
302 302 302 303 304 304 303 302 301 299 300 300 300 298 299 299 297 295 294 295 296 297
301 301 301 301 302 301 301 299 297 296 295 296 298 299 298 298 297 295 293 292 293 294

GFSNIL_sfc_thetae_096.txt.gz
Theta_e
325 325 323 324 324 325 325 325 327 329 329 329 329 329 327 325 324 324 320 319 318 316
325 325 324 324 325 326 327 327 328 327 327 328 329 328 326 325 323 322 319 317 314 311
311 312 313 314 319 322 323 323 322 323 323 326 325 323 321 318 318 315 312 311 310 307
310 310 310 310 312 315 318 318 318 320 322 320 319 318 316 310 309 308 307 306 306 305
308 309 309 309 310 312 314 315 315 315 313 313 313 312 310 307 306 305 304 304 304 303
306 306 307 307 307 308 310 311 312 310 309 307 306 308 307 306 306 305 304 303 302 301
303 305 305 306 305 305 306 307 307 308 307 305 306 306 305 304 303 302 302 302 301 301
301 302 304 304 304 304 304 304 305 304 303 303 303 303 303 302 301 301 300 299 299 299
302 302 302 303 302 302 301 301 301 301 300 300 300 303 304 301 298 298 297 296 296 297
301 300 301 302 302 301 299 299 299 298 298 298 298 302 303 302 298 297 296 296 296 296
300 299 299 300 300 300 299 298 297 297 298 297 298 301 301 301 294 293 292 294 295 295
298 298 298 297 297 298 300 301 298 297 296 295 296 300 300 299 293 291 290 292 293 294
297 297 296 296 296 297 300 301 300 298 297 298 297 300 300 299 296 292 293 293 293 296
296 296 296 294 295 298 298 297 297 296 296 297 298 297 300 300 296 295 293 292 292 292

GFSNIL_sfc_thetae_099.txt.gz
Theta_e
323 323 322 323 323 324 324 325 326 327 328 328 328 327 327 325 325 323 321 321 320 319
323 324 324 324 324 324 325 325 326 326 325 327 327 327 327 325 325 324 323 321 319 316
312 314 315 316 321 322 323 324 324 324 323 324 326 327 327 325 324 323 322 320 316 310
308 309 309 309 310 313 316 317 318 318 320 320 320 321 322 319 317 317 314 312 313 309
307 307 307 307 308 309 310 313 313 313 314 317 318 317 316 313 312 311 308 308 306 305
303 304 304 305 305 306 307 309 310 311 309 309 310 311 311 309 308 308 307 307 306 306
300 301 303 304 304 304 304 304 306 307 307 306 305 306 307 306 305 305 305 304 304 304
300 301 301 302 302 303 302 302 303 303 303 303 303 303 302 303 303 303 302 302 302 302
300 300 299 300 300 300 300 299 299 299 300 299 300 303 304 302 301 301 300 299 299 299
298 298 298 299 299 299 299 298 298 297 298 297 298 302 304 303 297 296 295 295 295 295
297 297 297 297 296 296 297 297 297 297 297 297 297 301 302 302 295 293 292 293 294 294
295 295 295 295 294 295 295 297 300 299 298 297 297 300 301 300 294 292 291 292 293 294
294 294 293 293 293 294 297 298 298 299 298 299 298 300 301 300 296 294 294 294 294 297
292 291 291 291 291 295 295 295 296 297 298 298 298 299 301 301 297 295 294 293 293 294